Date String (YYYY-MM-DD hh:mm:ss) UTC,Instrument flags,Ambient pressure (hPa),Sample flow (lpm),Bypass flow (lpm),Sample temperature (°C),Ambient temperature (°C),ASC tube jacket temperature (°C),LED temperature (°C),Box temperature (°C),Sample RH (%),Span deviation,Mass concentration (μg/m³),Mass concentration (μg/m³),Mass concentration (μg/m³)
DateTimeUTC,F1_M11,P_M11,Q1_M11,Q2_M11,T1_M11,T2_M11,T3_M11,T4_M11,T5_M11,U1_M11,ZSPAN_M11,X0_M11,X2_M11,X1_M11
2023-01-19 19:00:00,,0821.7,5.00,0.00,24.4,23.0,00.0,33.1,26.2,08.2,0000.0,0011.28,0006.82,0006.47
2023-01-19 19:01:00,,0821.7,5.00,0.00,24.4,23.1,00.0,33.1,26.2,08.4,0000.0,0010.56,0006.88,0006.53
2023-01-19 19:02:00,,0821.7,5.00,0.00,24.4,23.1,00.0,33.1,26.2,08.4,0000.0,0010.44,0006.94,0006.60
2023-01-19 19:03:00,,0821.7,5.00,0.00,24.4,23.1,00.0,33.1,26.2,08.3,0000.0,0010.36,0006.95,0006.62
2023-01-19 19:04:00,,0821.7,5.01,0.00,24.4,23.1,00.0,33.1,26.2,08.5,0000.0,0010.85,0007.00,0006.66
2023-01-19 19:05:00,,0821.7,4.99,0.00,24.4,23.1,00.0,33.1,26.2,08.7,0000.0,0011.05,0007.09,0006.73
2023-01-19 19:06:00,,0821.7,4.99,0.00,24.4,23.1,00.0,33.1,26.2,08.9,0000.0,0011.09,0007.11,0006.76
2023-01-19 19:07:00,,0821.6,5.01,0.00,24.4,23.1,00.0,33.2,26.2,08.9,0000.0,0011.11,0007.13,0006.77
2023-01-19 19:08:00,,0821.6,4.99,0.00,24.4,23.0,00.0,33.2,26.2,08.8,0000.0,0011.08,0007.15,0006.80
2023-01-19 19:09:00,,0821.6,5.00,0.00,24.4,23.0,00.0,33.2,26.2,09.0,0000.0,0011.11,0007.18,0006.84
2023-01-19 19:10:00,,0821.6,4.99,0.00,24.4,23.0,00.0,33.2,26.1,08.8,0000.0,0011.16,0007.25,0006.92
2023-01-19 19:11:00,,0821.5,5.01,0.00,24.4,23.0,00.0,33.2,26.1,08.5,0000.0,0011.08,0007.26,0006.95
2023-01-19 19:12:00,,0821.6,5.00,0.00,24.4,23.0,00.0,33.2,26.1,08.2,0000.0,0010.75,0007.18,0006.90
2023-01-19 19:13:00,,0821.5,5.05,0.00,24.4,23.0,00.0,33.2,26.2,08.3,0000.0,0011.13,0007.15,0006.85
2023-01-19 19:14:00,,0821.5,5.00,0.00,24.4,23.0,00.0,33.2,26.2,08.3,0000.0,0010.97,0007.11,0006.82
2023-01-19 19:15:00,,0821.4,4.99,0.00,24.4,23.0,00.0,33.2,26.2,08.1,0000.0,0010.36,0007.04,0006.76
2023-01-19 19:16:00,,0821.5,5.00,0.00,24.4,23.0,00.0,33.2,26.1,08.2,0000.0,0010.16,0006.94,0006.69
2023-01-19 19:17:00,,0821.5,5.02,0.00,24.4,23.0,00.0,33.2,26.2,08.2,0000.0,0010.09,0006.88,0006.62
2023-01-19 19:18:00,,0821.5,4.99,0.00,24.4,23.0,00.0,33.2,26.2,08.2,0000.0,0010.00,0006.81,0006.55
2023-01-19 19:19:00,,0821.5,4.99,0.00,24.4,23.0,00.0,33.2,26.1,08.1,0000.0,0009.92,0006.74,0006.49
2023-01-19 19:20:00,,0821.6,4.98,0.00,24.4,23.0,00.0,33.2,26.2,08.2,0000.0,0009.93,0006.69,0006.43
2023-01-19 19:21:00,,0821.5,5.01,0.00,24.4,23.0,00.0,33.2,26.2,08.4,0000.0,0009.94,0006.67,0006.39
2023-01-19 19:22:00,,0821.5,5.01,0.00,24.4,23.0,00.0,33.2,26.2,08.7,0000.0,0009.93,0006.67,0006.40
2023-01-19 19:23:00,,0821.5,4.99,0.00,24.4,23.0,00.0,33.2,26.2,08.8,0000.0,0010.09,0006.79,0006.50
2023-01-19 19:24:00,,0821.6,5.01,0.00,24.4,23.0,00.0,33.2,26.2,08.8,0000.0,0010.17,0006.86,0006.59
2023-01-19 19:25:00,,0821.6,4.99,0.00,24.4,23.0,00.0,33.2,26.2,09.0,0000.0,0010.37,0006.93,0006.67
2023-01-19 19:26:00,,0821.6,5.01,0.00,24.4,23.0,00.0,33.2,26.2,09.1,0000.0,0010.51,0007.03,0006.76
2023-01-19 19:27:00,,0821.6,5.01,0.00,24.4,23.0,00.0,33.2,26.2,09.1,0000.0,0010.63,0007.14,0006.87
2023-01-19 19:28:00,,0821.6,4.99,0.00,24.4,23.0,00.0,33.2,26.2,09.1,0000.0,0010.82,0007.21,0006.95
2023-01-19 19:29:00,,0821.6,5.00,0.00,24.4,22.9,00.0,33.2,26.2,09.3,0000.0,0011.18,0007.38,0007.12
2023-01-19 19:30:00,,0821.6,4.99,0.00,24.4,22.9,00.0,33.2,26.2,09.3,0000.0,0011.81,0007.66,0007.36
2023-01-19 19:31:00,,0821.7,5.00,0.00,24.4,22.9,00.0,33.2,26.2,09.2,0000.0,0012.15,0007.85,0007.56
2023-01-19 19:32:00,,0821.7,5.02,0.00,24.4,22.8,00.0,33.2,26.2,09.2,0000.0,0012.38,0008.00,0007.70
2023-01-19 19:33:00,,0821.7,4.99,0.00,24.3,22.6,00.0,33.2,26.2,09.2,0000.0,0012.59,0008.15,0007.84
2023-01-19 19:34:00,,0821.7,4.99,0.00,24.3,22.5,00.0,33.2,26.2,09.1,0000.0,0012.98,0008.26,0007.93
2023-01-19 19:35:00,,0821.7,5.01,0.00,24.3,22.6,00.0,33.1,26.1,08.9,0000.0,0012.77,0008.25,0007.92
2023-01-19 19:36:00,,0821.7,5.00,0.00,24.3,22.6,00.0,33.1,26.1,08.9,0000.0,0012.59,0008.25,0007.92
2023-01-19 19:37:00,,0821.7,4.99,0.00,24.2,22.6,00.0,33.1,26.0,08.8,0000.0,0012.55,0008.21,0007.89
2023-01-19 19:38:00,,0821.5,5.01,0.00,24.2,22.7,00.0,33.1,26.0,08.6,0000.0,0012.52,0008.15,0007.83
2023-01-19 19:39:00,,0821.5,5.00,0.00,24.2,22.7,00.0,33.1,26.0,08.3,0000.0,0012.49,0008.06,0007.74
2023-01-19 19:40:00,,0821.4,5.00,0.00,24.2,22.7,00.0,33.1,26.0,08.1,0000.0,0012.22,0007.86,0007.55
2023-01-19 19:41:00,,0821.4,5.00,0.00,24.2,22.7,00.0,33.1,26.0,08.0,0000.0,0011.56,0007.54,0007.27
2023-01-19 19:42:00,,0821.4,4.99,0.00,24.2,22.8,00.0,33.1,26.0,08.0,0000.0,0011.07,0007.28,0007.01
2023-01-19 19:43:00,,0821.4,5.01,0.00,24.2,22.8,00.0,33.1,26.0,08.0,0000.0,0010.71,0007.03,0006.78
2023-01-19 19:44:00,,0821.4,5.01,0.00,24.2,22.8,00.0,33.1,26.0,08.2,0000.0,0010.36,0006.77,0006.54
2023-01-19 19:45:00,,0821.4,5.00,0.00,24.2,22.8,00.0,33.1,26.0,08.4,0000.0,0009.88,0006.57,0006.33
2023-01-19 19:46:00,,0821.4,5.00,0.00,24.2,22.7,00.0,33.1,26.1,08.4,0000.0,0009.62,0006.46,0006.22
2023-01-19 19:47:00,,0821.4,4.99,0.00,24.2,22.7,00.0,33.1,26.1,08.8,0000.0,0009.51,0006.35,0006.10
2023-01-19 19:48:00,,0821.4,5.01,0.00,24.2,22.7,00.0,33.1,25.9,08.9,0000.0,0009.40,0006.29,0006.04
2023-01-19 19:49:00,,0821.4,5.01,0.00,24.2,22.7,00.0,33.1,25.9,08.9,0000.0,0009.88,0006.27,0006.00
2023-01-19 19:50:00,,0821.4,4.99,0.00,24.2,22.7,00.0,33.1,25.9,08.8,0000.0,0010.48,0006.25,0005.97
2023-01-19 19:51:00,,0821.4,4.99,0.00,24.2,22.7,00.0,33.1,25.9,08.7,0000.0,0010.40,0006.24,0005.94
2023-01-19 19:52:00,,0821.4,5.01,0.00,24.2,22.7,00.0,33.0,25.9,08.5,0000.0,0010.39,0006.22,0005.90
2023-01-19 19:53:00,,0821.4,5.01,0.00,24.2,22.6,00.0,33.0,25.9,08.4,0000.0,0010.41,0006.20,0005.86
2023-01-19 19:54:00,,0821.4,5.00,0.00,24.2,22.6,00.0,33.0,25.9,08.5,0000.0,0010.46,0006.18,0005.83
2023-01-19 19:55:00,,0821.4,4.99,0.00,24.1,22.6,00.0,33.0,25.9,08.3,0000.0,0010.52,0006.15,0005.77
2023-01-19 19:56:00,,0821.4,5.00,0.00,24.1,22.6,00.0,33.0,25.9,08.0,0000.0,0010.76,0006.03,0005.68
2023-01-19 19:57:00,,0821.4,4.99,0.00,24.1,22.6,00.0,33.0,25.9,07.9,0000.0,0010.85,0005.93,0005.56
2023-01-19 19:58:00,,0821.4,5.00,0.00,24.1,22.6,00.0,33.0,25.9,07.8,0000.0,0010.95,0005.77,0005.42
2023-01-19 19:59:00,,0821.3,5.00,0.00,24.1,22.6,00.0,33.0,25.9,07.7,0000.0,0010.87,0005.60,0005.25
